Miscellaneous Local Product
Issued by NWS Hastings, NE

Home | Current Version | Previous Version | Graphics & Text | Print | Product List | Glossary On
Versions: 1 2 3 4 5 6 7 8 9 10 11 12 13 14 15 16 17 18 19 20 21 22 23 24 25 26 27 28 29 30 31 32 33 34 35 36 37 38 39 40 41 42 43 44 45 46 47 48 49 50
000
AXUS43 KGID 281002
MISGRI

GID CWA HOURLY WEATHER ROUNDUP
NATIONAL WEATHER SERVICE HASTINGS NE
500 AM CDT SUN AUG 28 2016

NOTE: "FAIR" INDICATES FEW OR NO CLOUDS BELOW 12,000 FEET WITH NO
SIGNIFICANT WEATHER AND/OR OBSTRUCTIONS TO VISIBILITY.

...SOUTH CENTRAL NEBRASKA...

CITY           SKY/WX    TMP DP  RH WIND       PRES   REMARKS
GRAND ISLAND   PTCLDY    68  66  93 S9        30.06S
HASTINGS       CLOUDY    68  66  93 S7        30.07S
KEARNEY        PTCLDY    66  64  94 S7        30.06R
ORD            CLEAR     64  61  90 E3        30.03S
YORK           PTCLDY    66  64  94 SE7       30.07R
AURORA         CLOUDY    65  65 100 SE7       30.06S
LEXINGTON      CLOUDY    68  65  92 S8        30.06S
HOLDREGE       CLOUDY    66  64  94 SE5       30.07S
HEBRON         PTCLDY    66  65  97 CALM      30.06S

...NEBRASKA PANHANDLE...

CITY           SKY/WX    TMP DP  RH WIND       PRES   REMARKS
CHADRON        CLEAR     66  51  58 SW7       29.96R
ALLIANCE       FOG       53  53 100 MISG      30.05R VSB 1
SCOTTSBLUFF    CLEAR     58  54  86 E9        30.05S
SIDNEY         CLEAR     55  52  89 SW9       30.11R

...WESTERN AND NORTH CENTRAL NEBRASKA...

CITY           SKY/WX    TMP DP  RH WIND       PRES   REMARKS
VALENTINE      NOT AVBL
AINSWORTH      CLEAR     65  64  99 S10       30.02S
ONEILL         CLEAR     65  64  93 S6        30.03F
BROKEN BOW     CLOUDY    65  64  97 SE6       30.05S
IMPERIAL       PTCLDY    61  60  97 SE7       30.07R
NORTH PLATTE   CLOUDY    65  63  93 SE6       30.06R
MCCOOK         CLOUDY    65  63  93 SE5       30.05S

...EASTERN NEBRASKA...

CITY           SKY/WX    TMP DP  RH WIND       PRES   REMARKS
NORFOLK        CLEAR     67  63  87 S12       30.05R
SO SIOUX CITY  CLEAR     65  62  90 SE9       30.05R
TEKAMAH        FOG       60  59  96 S3        30.06R VSB 1/4
COLUMBUS       CLEAR     68  61  77 SE6       30.06S
ALBION         CLEAR     64  62  91 E5        30.05F
OMAHA EPPLEY   CLEAR     69  65  86 SE5       30.07R
OFFUTT AFB     CLEAR     63  63 100 E5        30.07R
MILLARD          N/A     67  66  96 CALM      30.07R FOG
LINCOLN        CLEAR     63  61  93 N3        30.07R
NEBRASKA CITY  MOCLDY    67  67 100 S5        30.08R
BEATRICE       PTCLDY    67  66  96 SE3       30.07S
FALLS CITY     PTCLDY    70  69  97 E3        30.06R

...NORTHERN KANSAS...

CITY           SKY/WX    TMP DP  RH WIND       PRES   REMARKS
GOODLAND       CLOUDY    59  57  93 S3        30.08R
HILL CITY      CLOUDY    65  61  87 SE5       30.06S
NORTON         SUNNY     68  61  77 S5        30.06S
SMITH CENTER   CLEAR     66  64  94 E8        30.07S
BELOIT         CLEAR     68  66  94 SE7       30.05R
HAYS           MOCLDY    66  57  72 SE5       30.07R
RUSSELL        PTCLDY    70  67  90 S6        30.05S
CONCORDIA      CLOUDY    69  67  93 S8        30.06S
SALINA         PTCLDY    73  69  87 CALM      30.06R
TOPEKA         PTCLDY    71  68  90 CALM      30.06S



USA.gov is the U.S. government's official web portal to all federal, state and local government web resources and services.